Content
SEND FEEDBACK

Daily
Averages
Monthly
Summary
United States of America

MCCONNELSVILLE, OHIO


Home > North America > United States > Ohio
Elevation: 885 feet     Latitude: 39 39N     Longitude: 081 50W

WEATHER
 
SELECT A DAY
Number of Records: 206,197;   Date Range: 1/1/95 - 7/7/14
 
SHARE

PRINT THIS DATA

[ ← Previous Day ]
WEATHER ALMANAC - JANUARY 23, 2013
[ Next Day → ]
[ °C ]   °F
Weather ElementAverageHighLow
Temperature16.7 °F21 °F (2:53 pm)8.1 °F (7:53 am)
Dewpoint7.3 °F15.8 °F (9:20 pm)-2 °F (1:53 am)
Humidity68.6 %93 % (10:07 pm)40 % (3:53 pm)
Barometer30.25 in30.40 in (7:53 am)30.11 in (10:21 pm)
Wind Speed3.3 mph9.2 mph (1:53 pm)
Weather ElementAverage
Visibility6.5 mi
Wind DirectionESE (123.3 °)

Weather ElementTotal
Precipitation0.01 in
Heating Degree Days50.5 (Base 65)
Averaged from 33 records on January 23, 2013
WEATHER CONDITIONS BREAKOUT
WIND DIRECTION BREAKOUT
WEATHER BY HOUR - JANUARY 23, 2013
[ °C ]   °F
Local TimeTemperatureDewpointHumidityBarometerVisibilityWind DirectionWind SpeedGust SpeedPrecipitationEventsConditions
1:53 AM10.9 °F-2.0 °F56 %30.37 in10.0 miWest (270°)3.5 mphClear
2:53 AM10.0 °F-0.9 °F61 %30.39 in10.0 miCalmClear
3:53 AM10.0 °F-0.9 °F61 %30.39 in10.0 miCalmClear
4:53 AM10.0 °F1.9 °F70 %30.38 in10.0 miCalmOvercast
5:53 AM10.0 °F1.0 °F67 %30.39 in10.0 miSouth (180°)3.5 mphClear
6:53 AM9.0 °F1.0 °F70 %30.39 in10.0 miSouth (190°)3.5 mphClear
7:53 AM8.1 °F1.0 °F73 %30.40 in10.0 miCalmClear
8:53 AM12.0 °F3.0 °F67 %30.39 in10.0 miSSE (160°)3.5 mphOvercast
9:53 AM14.0 °F1.0 °F56 %30.40 in10.0 miWNW (290°)5.8 mphOvercast
10:53 AM16.0 °F1.0 °F52 %30.40 in10.0 miWest (260°)8.1 mphOvercast
11:53 AM17.1 °F1.0 °F50 %30.36 in10.0 miVariable4.6 mphOvercast
12:53 PM19.0 °F1.9 °F47 %30.31 in10.0 miWest (260°)8.1 mphOvercast
1:53 PM19.9 °F1.0 °F44 %30.29 in10.0 miSW (220°)9.2 mphOvercast
2:53 PM21.0 °F1.0 °F42 %30.27 in10.0 miWSW (250°)9.2 mphOvercast
3:53 PM21.0 °F0.0 °F40 %30.26 in10.0 miSSW (200°)5.8 mphOvercast
4:53 PM21.0 °F0.0 °F40 %30.24 in10.0 miVariable4.6 mphOvercast
5:53 PM19.9 °F3.0 °F48 %30.21 in9.0 miSouth (190°)4.6 mphOvercast
6:30 PM19.4 °F10.4 °F68 %30.17 in2.5 miSW (220°)5.8 mph0.00 inSnowLight Snow
6:42 PM19.4 °F12.2 °F74 %30.17 in1.8 miSSW (210°)3.5 mph0.00 inSnowLight Snow
6:53 PM19.0 °F12.9 °F77 %30.22 in2.5 miSW (230°)4.6 mph0.00 inSnowLight Snow
7:45 PM19.4 °F14.0 °F80 %30.16 in2.5 miSSW (200°)3.5 mph0.00 inSnowLight Snow
7:53 PM19.0 °F14.0 °F81 %30.20 in2.5 miSSW (200°)3.5 mph0.00 inSnowLight Snow
8:00 PM19.4 °F14.0 °F80 %30.15 in3.0 miSouth (190°)3.5 mph0.00 inSnowLight Snow
8:17 PM19.4 °F14.0 °F80 %30.14 in2.5 miCalm0.00 inSnowLight Snow
8:27 PM19.4 °F14.0 °F80 %30.14 in3.0 miCalm0.00 inSnowLight Snow
8:53 PM19.0 °F14.0 °F81 %30.18 in3.0 miCalm0.00 inSnowLight Snow
9:20 PM19.4 °F15.8 °F86 %30.13 in2.5 miCalm0.00 inSnowLight Snow
9:33 PM19.4 °F15.8 °F86 %30.13 in1.8 miCalm0.00 inSnowLight Snow
9:53 PM19.0 °F15.1 °F85 %30.16 in2.0 miCalm0.01 inSnowLight Snow
10:07 PM17.6 °F15.8 °F93 %30.12 in2.5 miCalm0.00 inSnowLight Snow
10:21 PM17.6 °F15.8 °F93 %30.11 in4.0 miSSE (160°)3.5 mph0.00 inSnowLight Snow
10:53 PM18.0 °F15.1 °F88 %30.15 in4.0 miCalm0.00 inSnowLight Snow
11:53 PM18.0 °F15.1 °F88 %30.13 in4.0 miSouth (190°)5.8 mph0.00 inSnowLight Snow
Hourly data recorded from KPKB, located miles away from McConnelsville, Ohio







STORIES FROM OUR PARTNERS